Location: Medlow Airstrip Trail, Medlow Bath NSW 2780, Australia
(33.6682°S, 150.3233°E)
Time: 22:53:58
(UTC+11:00)

N. Korean satellite - Pass Details

Date: 24 October 2019
Orbit: 456 x 506 km, 97.2° (Epoch: 16 November)

Event Time Altitude Azimuth Distance (km) Brightness Sun altitude
Rises 19:37:35 0° 188° (S) 2,547 10.6 -4.6°
Reaches altitude 10° 19:40:09 10° 208° (SSW) 1,650 10.0 -5.1°
Maximum altitude 19:42:34 17° 251° (WSW) 1,242 10.1 -5.6°
Drops below altitude 10° 19:44:56 10° 294° (WNW) 1,619 10.0 -6.0°
Sets 19:47:26 0° 314° (NW) 2,478 10.6 -6.5°
